LEDGEWOOD Weather Reports


Display with metric or nautical units.
time (UTC)temp
F
wind
direction
speed
MPH
gust
MPH
rain 1hr
in
rain 24hr
in
rain mn
in
humidity
%
barometer
mb
20260504231557 68 323 1.0 5.0 0.00 0.00 0.00 38 1004.9
20260504230103 69 73 0.0 3.0 0.00 0.00 0.00 36 1004.6
20260504224559 70 217 0.0 7.0 0.00 0.00 0.00 35 1004.4
20260504223104 70 145 2.0 7.0 0.00 0.00 0.00 33 1004.3
20260504221607 70 206 2.0 5.0 0.00 0.00 0.00 34 1004.3
20260504220135 70 311 2.0 6.0 0.00 0.00 0.00 34 1004.4
20260504214558 70 245 3.0 7.0 0.00 0.00 0.00 34 1004.4
20260504213128 71 259 2.0 4.0 0.00 0.00 0.00 33 1004.2
20260504211600 71 263 3.0 9.0 0.00 0.00 0.00 33 1004.2
20260504210104 71 133 3.0 6.0 0.00 0.00 0.00 34 1004.3
20260504204619 71 271 1.0 9.0 0.00 0.00 0.00 33 1004.2
20260504203100 72 266 4.0 12.0 0.00 0.00 0.00 32 1004.2
20260504201609 73 281 2.0 7.0 0.00 0.00 0.00 31 1004.2
20260504200111 72 255 3.0 11.0 0.00 0.00 0.00 31 1004.2
20260504194558 71 315 3.0 9.0 0.00 0.00 0.00 34 1004.3
20260504193103 72 260 3.0 10.0 0.00 0.00 0.00 31 1004.3
20260504191559 71 218 4.0 10.0 0.00 0.00 0.00 32 1004.3
20260504190101 71 20 6.0 16.0 0.00 0.00 0.00 31 1004.2
20260504184602 70 66 3.0 7.0 0.00 0.00 0.00 32 1004.4
20260504183105 70 228 3.0 10.0 0.00 0.00 0.00 31 1004.7
20260504181614 69 142 3.0 8.0 0.00 0.00 0.00 31 1004.6
20260504180059 72 243 2.0 9.0 0.00 0.00 0.00 29 1004.7
20260504174559 72 205 5.0 12.0 0.00 0.00 0.00 29 1004.7
20260504173101 70 233 4.0 13.0 0.00 0.00 0.00 31 1004.6
20260504171606 70 310 2.0 9.0 0.00 0.00 0.00 32 1004.9
20260504100103 39 0 0.0 0.0 0.00 0.01 0.00 76 1008.3
20260504081600 42 0 0.0 0.0 0.00 0.01 0.00 73 1008.2
20260504044557 36 0 0.0 0.0 0.00 0.01 0.00 82 1008.2
20260504043100 36 0 0.0 0.0 0.00 0.01 0.00 80 1008.2
20260504041559 36 0 0.0 1.0 0.00 0.01 0.00 82 1008.2
20260504040100 36 0 0.0 0.0 0.00 0.01 0.00 83 1008.1
20260504034559 36 0 0.0 0.0 0.00 0.01 0.01 84 1007.9
20260504033102 36 0 0.0 1.0 0.00 0.01 0.01 85 1007.8
20260504031602 36 0 0.0 0.0 0.00 0.01 0.01 83 1007.7
20260504030107 36 0 0.0 0.0 0.00 0.01 0.01 82 1007.7
20260504024602 37 0 0.0 0.0 0.00 0.01 0.01 82 1007.7
20260504023059 37 0 0.0 1.0 0.00 0.01 0.01 80 1007.7
20260504021608 38 0 0.0 1.0 0.00 0.01 0.01 78 1007.7
20260504020134 39 0 0.0 1.0 0.00 0.01 0.01 75 1007.6
20260504014607 40 271 0.0 1.0 0.00 0.01 0.01 71 1007.6
20260504013118 41 0 0.0 0.0 0.00 0.01 0.01 68 1007.5
20260504011600 42 0 0.0 0.0 0.00 0.01 0.01 67 1007.4
20260504010057 43 0 0.0 0.0 0.00 0.01 0.01 65 1007.2
20260504004635 44 0 0.0 0.0 0.00 0.02 0.01 57 1007.0
20260504003101 46 0 0.0 2.0 0.00 0.02 0.01 53 1006.7
20260504001622 47 0 0.0 4.0 0.00 0.02 0.01 52 1006.5
20260504000113 48 281 1.0 5.0 0.00 0.02 0.01 51 1006.2
20260503234609 48 239 2.0 6.0 0.00 0.02 0.01 49 1006.0
20260503233103 49 284 1.0 5.0 0.00 0.02 0.01 48 1005.8